Location: Unspecified
(0.0000°N, 0.0000°E)
Time: 11:28:31
(UTC+00:00)

Explorer 7 - Pass Details

Date: 27 July 2019
Orbit: 485 x 680 km, 50.3° (Epoch: 07 December)

Event Time Altitude Azimuth Distance (km) Brightness Sun altitude
Exits shadow 05:11:53 15° 284° (WNW) 1,586 8.7 -12.9°
Maximum altitude 05:14:41 28° 232° (SW) 1,109 7.8 -12.2°
Drops below altitude 10° 05:18:32 10° 172° (S) 1,959 9.5 -11.3°
Sets 05:21:10 0° 161° (SSE) 2,903 10.5 -10.7°
